| time (UTC) | temp F | wind direction | speed knots | gust knots | rain 1hr in | rain 24hr in | rain mn in | humidity % | barometer mb |
| 20260506094213 | 56 | 162 | 2.6 | 0.0 | 0.00 | 0.00 | 0.00 | 84 | 1008.4 |
| 20260506093208 | 56 | 182 | 1.7 | 0.0 | 0.00 | 0.00 | 0.00 | 86 | 1008.4 |
| 20260506092218 | 56 | 170 | 2.6 | 0.0 | 0.00 | 0.00 | 0.00 | 86 | 1008.4 |
| 20260506091208 | 56 | 172 | 1.7 | 0.0 | 0.00 | 0.00 | 0.00 | 86 | 1008.4 |
| 20260506090207 | 56 | 50 | 1.7 | 0.0 | 0.00 | 0.00 | 0.00 | 86 | 1008.2 |
| 20260506085208 | 56 | 168 | 1.7 | 0.0 | 0.00 | 0.00 | 0.00 | 86 | 1008.2 |
| 20260506084208 | 56 | 232 | 1.7 | 0.0 | 0.00 | 0.00 | 0.00 | 86 | 1008.2 |
| 20260506083208 | 56 | 214 | 1.7 | 0.0 | 0.00 | 0.00 | 0.00 | 86 | 1008.2 |
| 20260506082213 | 56 | 180 | 0.9 | 0.0 | 0.00 | 0.00 | 0.00 | 88 | 1008.0 |
| 20260506081208 | 54 | 160 | 1.7 | 0.0 | 0.00 | 0.00 | 0.00 | 88 | 1008.0 |
| 20260506080208 | 54 | 160 | 1.7 | 0.0 | 0.00 | 0.00 | 0.00 | 88 | 1008.0 |
| 20260506073208 | 54 | 166 | 2.6 | 0.0 | 0.00 | 0.00 | 0.00 | 88 | 1008.0 |
| 20260506072217 | 54 | 154 | 1.7 | 0.0 | 0.00 | 0.00 | 0.00 | 88 | 1008.2 |
| 20260506071208 | 54 | 208 | 0.9 | 0.0 | 0.00 | 0.00 | 0.00 | 90 | 1008.0 |
| 20260506070208 | 54 | 196 | 0.9 | 0.0 | 0.00 | 0.00 | 0.00 | 90 | 1008.0 |
| 20260506062217 | 52 | 174 | 1.7 | 0.0 | 0.00 | 0.00 | 0.00 | 90 | 1007.8 |
| 20260506061207 | 52 | 184 | 0.9 | 0.0 | 0.00 | 0.00 | 0.00 | 92 | 1007.8 |
| 20260506060208 | 52 | 174 | 0.9 | 0.0 | 0.00 | 0.00 | 0.00 | 94 | 1007.8 |
| 20260506051208 | 50 | 206 | 1.7 | 0.0 | 0.00 | 0.00 | 0.00 | 94 | 1007.6 |
| 20260506050208 | 48 | 168 | 1.7 | 0.0 | 0.00 | 0.00 | 0.00 | 94 | 1007.6 |
| 20260506044208 | 48 | 176 | 0.9 | 0.0 | 0.00 | 0.00 | 0.00 | 94 | 1007.8 |
| 20260506043208 | 48 | 148 | 0.0 | 0.0 | 0.00 | 0.00 | 0.00 | 94 | 1007.8 |
| 20260506042213 | 48 | 148 | 0.0 | 0.0 | 0.00 | 0.00 | 0.00 | 94 | 1007.8 |
| 20260506041208 | 48 | 148 | 0.0 | 0.0 | 0.00 | 0.00 | 0.00 | 94 | 1007.8 |
| 20260506040208 | 48 | 148 | 0.0 | 0.0 | 0.00 | 0.00 | 0.00 | 94 | 1007.8 |
| 20260506035208 | 48 | 170 | 0.0 | 0.0 | 0.00 | 0.00 | 0.00 | 94 | 1007.8 |
| 20260506034208 | 48 | 164 | 0.0 | 0.0 | 0.00 | 0.00 | 0.00 | 94 | 1007.8 |
| 20260506033208 | 48 | 164 | 0.0 | 0.0 | 0.00 | 0.00 | 0.00 | 94 | 1007.8 |
| 20260506032219 | 48 | 164 | 0.0 | 0.0 | 0.00 | 0.00 | 0.00 | 94 | 1008.0 |
| 20260506031207 | 48 | 164 | 0.0 | 0.0 | 0.00 | 0.00 | 0.00 | 92 | 1008.0 |
| 20260506030208 | 50 | 164 | 0.0 | 0.0 | 0.00 | 0.00 | 0.00 | 92 | 1008.0 |
| 20260506025208 | 50 | 164 | 0.0 | 0.0 | 0.00 | 0.00 | 0.00 | 92 | 1008.0 |
| 20260506024208 | 50 | 164 | 0.0 | 0.0 | 0.00 | 0.00 | 0.00 | 92 | 1008.0 |
| 20260506023208 | 50 | 164 | 0.0 | 0.0 | 0.00 | 0.00 | 0.00 | 92 | 1008.2 |
| 20260506022218 | 50 | 164 | 0.0 | 0.0 | 0.00 | 0.00 | 0.00 | 92 | 1008.0 |
| 20260506021208 | 50 | 164 | 0.0 | 0.0 | 0.00 | 0.00 | 0.00 | 92 | 1008.0 |
| 20260506020208 | 50 | 164 | 0.0 | 0.0 | 0.00 | 0.00 | 0.00 | 92 | 1008.0 |
| 20260506015208 | 50 | 164 | 0.0 | 0.0 | 0.00 | 0.00 | 0.00 | 92 | 1008.2 |
| 20260506014208 | 50 | 164 | 0.9 | 0.0 | 0.00 | 0.00 | 0.00 | 92 | 1008.2 |
| 20260506013208 | 50 | 164 | 0.9 | 0.0 | 0.00 | 0.00 | 0.00 | 92 | 1008.0 |
| 20260506012218 | 50 | 160 | 0.0 | 0.0 | 0.00 | 0.00 | 0.00 | 92 | 1008.2 |
| 20260506011208 | 50 | 160 | 0.9 | 0.0 | 0.00 | 0.00 | 0.00 | 92 | 1008.2 |
| 20260506010208 | 52 | 234 | 0.9 | 0.0 | 0.00 | 0.00 | 0.00 | 92 | 1008.4 |
| 20260506005208 | 52 | 248 | 0.0 | 0.0 | 0.00 | 0.00 | 0.00 | 92 | 1008.4 |
| 20260506004208 | 52 | 212 | 0.9 | 0.0 | 0.00 | 0.00 | 0.00 | 92 | 1008.4 |
| 20260506003208 | 52 | 170 | 0.0 | 0.0 | 0.00 | 0.00 | 0.00 | 92 | 1008.6 |
| 20260506002218 | 52 | 170 | 0.0 | 0.0 | 0.00 | 0.00 | 0.00 | 92 | 1008.6 |
| 20260506001208 | 52 | 170 | 0.9 | 0.0 | 0.00 | 0.00 | 0.00 | 92 | 1008.6 |
| 20260506000208 | 52 | 196 | 0.9 | 0.0 | 0.00 | 0.00 | 0.00 | 92 | 1008.6 |
| 20260505235208 | 52 | 152 | 0.9 | 0.0 | 0.00 | 0.00 | 0.00 | 90 | 1008.8 |
| 20260505234208 | 52 | 140 | 0.9 | 0.0 | 0.00 | 0.00 | 0.00 | 90 | 1009.0 |
| 20260505233208 | 52 | 152 | 0.9 | 0.0 | 0.00 | 0.00 | 0.00 | 92 | 1009.0 |
| 20260505232218 | 52 | 152 | 0.9 | 0.0 | 0.00 | 0.00 | 0.00 | 92 | 1009.0 |
| 20260505231217 | 52 | 170 | 0.0 | 0.0 | 0.00 | 0.00 | 0.00 | 92 | 1009.0 |
| 20260505230208 | 52 | 170 | 0.0 | 0.0 | 0.00 | 0.00 | 0.00 | 92 | 1009.0 |
| 20260505225208 | 52 | 170 | 0.0 | 0.0 | 0.00 | 0.00 | 0.00 | 92 | 1009.0 |
| 20260505224208 | 52 | 170 | 0.0 | 0.0 | 0.00 | 0.00 | 0.00 | 92 | 1009.0 |
| 20260505223208 | 52 | 170 | 0.0 | 0.0 | 0.00 | 0.00 | 0.00 | 92 | 1009.0 |
| 20260505222213 | 52 | 170 | 0.0 | 0.0 | 0.00 | 0.00 | 0.00 | 92 | 1009.0 |
| 20260505221208 | 52 | 170 | 0.0 | 0.0 | 0.00 | 0.00 | 0.00 | 92 | 1009.0 |
| 20260505220209 | 52 | 170 | 0.0 | 0.0 | 0.00 | 0.00 | 0.00 | 92 | 1009.0 |
| 20260505215208 | 52 | 170 | 0.0 | 0.0 | 0.00 | 0.00 | 0.00 | 90 | 1009.2 |
| 20260505214208 | 54 | 170 | 0.0 | 0.0 | 0.00 | 0.00 | 0.00 | 90 | 1009.2 |
| 20260505213208 | 54 | 170 | 0.0 | 0.0 | 0.00 | 0.00 | 0.00 | 90 | 1009.4 |
| 20260505212208 | 54 | 170 | 0.0 | 0.0 | 0.00 | 0.00 | 0.00 | 88 | 1009.4 |
| 20260505211208 | 54 | 170 | 0.0 | 0.0 | 0.00 | 0.00 | 0.00 | 88 | 1009.4 |
| 20260505210208 | 54 | 170 | 0.0 | 0.0 | 0.00 | 0.00 | 0.00 | 88 | 1009.6 |
| 20260505205208 | 54 | 170 | 0.9 | 0.0 | 0.00 | 0.00 | 0.00 | 88 | 1009.6 |
| 20260505204208 | 54 | 206 | 0.0 | 0.0 | 0.00 | 0.00 | 0.00 | 88 | 1009.4 |
| 20260505203208 | 54 | 200 | 0.0 | 0.0 | 0.00 | 0.00 | 0.00 | 86 | 1009.4 |
| 20260505202213 | 54 | 230 | 0.9 | 0.0 | 0.00 | 0.00 | 0.00 | 86 | 1009.4 |
| 20260505201208 | 54 | 250 | 0.9 | 0.0 | 0.00 | 0.00 | 0.00 | 86 | 1009.2 |
| 20260505200208 | 56 | 230 | 0.0 | 0.0 | 0.00 | 0.00 | 0.00 | 86 | 1009.2 |
| 20260505195208 | 56 | 224 | 0.9 | 0.0 | 0.00 | 0.00 | 0.00 | 86 | 1009.2 |
| 20260505194208 | 56 | 274 | 0.0 | 0.0 | 0.00 | 0.00 | 0.00 | 84 | 1009.0 |
| 20260505193208 | 56 | 86 | 0.9 | 0.0 | 0.00 | 0.00 | 0.00 | 82 | 1009.2 |
| 20260505192208 | 56 | 204 | 0.9 | 0.0 | 0.00 | 0.00 | 0.00 | 82 | 1009.2 |
| 20260505191208 | 58 | 138 | 0.0 | 0.0 | 0.00 | 0.00 | 0.00 | 78 | 1009.0 |
| 20260505190208 | 58 | 204 | 0.9 | 0.0 | 0.00 | 0.00 | 0.00 | 76 | 1009.0 |
| 20260505185208 | 58 | 176 | 0.0 | 0.0 | 0.00 | 0.00 | 0.00 | 76 | 1008.8 |
| 20260505184208 | 60 | 304 | 0.0 | 0.0 | 0.00 | 0.00 | 0.00 | 76 | 1008.4 |
| 20260505183208 | 60 | 190 | 0.0 | 0.0 | 0.00 | 0.00 | 0.00 | 74 | 1008.4 |
| 20260505182219 | 60 | 112 | 0.0 | 0.0 | 0.00 | 0.00 | 0.00 | 74 | 1008.4 |
| 20260505181208 | 60 | 172 | 0.0 | 0.0 | 0.00 | 0.00 | 0.00 | 74 | 1008.2 |
| 20260505180208 | 60 | 266 | 0.0 | 0.0 | 0.00 | 0.00 | 0.00 | 72 | 1008.4 |
| 20260505175208 | 60 | 268 | 0.0 | 0.0 | 0.00 | 0.00 | 0.00 | 72 | 1008.2 |
| 20260505174208 | 60 | 264 | 0.0 | 0.0 | 0.00 | 0.00 | 0.00 | 70 | 1008.2 |
| 20260505173208 | 62 | 314 | 0.9 | 0.0 | 0.00 | 0.00 | 0.00 | 70 | 1008.2 |
| 20260505172208 | 62 | 172 | 0.9 | 0.0 | 0.00 | 0.00 | 0.00 | 68 | 1008.2 |
| 20260505171208 | 62 | 356 | 0.9 | 0.0 | 0.00 | 0.00 | 0.00 | 72 | 1008.2 |
| 20260505170208 | 60 | 236 | 0.0 | 0.0 | 0.00 | 0.00 | 0.00 | 74 | 1008.4 |
| 20260505165208 | 60 | 292 | 0.0 | 0.0 | 0.00 | 0.00 | 0.00 | 74 | 1008.2 |
| 20260505164208 | 62 | 266 | 0.9 | 0.0 | 0.00 | 0.00 | 0.00 | 72 | 1008.2 |
| 20260505163208 | 62 | 322 | 0.9 | 0.0 | 0.00 | 0.00 | 0.00 | 70 | 1008.2 |
| 20260505162208 | 62 | 314 | 0.9 | 0.0 | 0.00 | 0.00 | 0.00 | 76 | 1008.2 |
| 20260505161208 | 62 | 220 | 0.9 | 0.0 | 0.00 | 0.00 | 0.00 | 74 | 1008.2 |
| 20260505160208 | 62 | 274 | 0.9 | 0.0 | 0.00 | 0.00 | 0.00 | 78 | 1008.2 |
| 20260505153208 | 62 | 308 | 1.7 | 0.0 | 0.00 | 0.00 | 0.00 | 78 | 1008.4 |
| 20260505152208 | 62 | 304 | 0.9 | 0.0 | 0.00 | 0.00 | 0.00 | 78 | 1008.4 |
| 20260505151208 | 60 | 238 | 0.9 | 0.0 | 0.00 | 0.00 | 0.00 | 82 | 1008.4 |
| 20260505150208 | 60 | 266 | 0.0 | 0.0 | 0.01 | 0.00 | 0.00 | 82 | 1008.6 |
| 20260505140208 | 60 | 210 | 1.7 | 0.0 | 0.00 | 0.00 | 0.00 | 80 | 1008.8 |
| 20260505130208 | 56 | 312 | 0.9 | 0.0 | 0.00 | 0.00 | 0.00 | 90 | 1009.2 |
| 20260505124208 | 56 | 296 | 0.9 | 0.0 | 0.00 | 0.00 | 0.00 | 90 | 1009.2 |
| 20260505123208 | 56 | 328 | 0.9 | 0.0 | 0.00 | 0.00 | 0.00 | 90 | 1009.4 |
| 20260505122217 | 56 | 204 | 0.0 | 0.0 | 0.00 | 0.00 | 0.00 | 90 | 1009.6 |
| 20260505121208 | 56 | 212 | 0.9 | 0.0 | 0.00 | 0.00 | 0.00 | 90 | 1009.6 |
| 20260505120208 | 56 | 188 | 0.9 | 0.0 | 0.00 | 0.00 | 0.00 | 90 | 1009.6 |
| 20260505115208 | 56 | 294 | 0.9 | 0.0 | 0.00 | 0.00 | 0.00 | 88 | 1009.6 |
| 20260505114208 | 56 | 286 | 1.7 | 0.0 | 0.00 | 0.00 | 0.00 | 88 | 1009.6 |
| 20260505113208 | 56 | 204 | 1.7 | 0.0 | 0.00 | 0.00 | 0.00 | 86 | 1009.4 |
| 20260505112208 | 58 | 230 | 1.7 | 0.0 | 0.00 | 0.00 | 0.00 | 86 | 1009.2 |
| 20260505111208 | 58 | 166 | 2.6 | 0.0 | 0.00 | 0.00 | 0.00 | 82 | 1009.2 |
| 20260505110208 | 60 | 214 | 1.7 | 0.0 | 0.00 | 0.00 | 0.00 | 76 | 1009.0 |
| 20260505102208 | 64 | 310 | 0.9 | 0.0 | 0.00 | 0.00 | 0.00 | 68 | 1008.6 |
| 20260505101208 | 64 | 304 | 1.7 | 0.0 | 0.00 | 0.00 | 0.00 | 70 | 1008.6 |
| 20260505100208 | 64 | 166 | 1.7 | 0.0 | 0.00 | 0.00 | 0.00 | 68 | 1008.6 |
| 20260505095208 | 64 | 302 | 1.7 | 0.0 | 0.00 | 0.00 | 0.00 | 68 | 1008.6 |